Ashtabula, OH

9:26 PM EDT on April 28, 2017 (GMT -0400)
Ashtabula County

Weather History for KHZY - August, 2014

Change the Weather History Date:

Tuesday, August 12, 2014

  Actual Average (KGKJ) Record (KGKJ)
Temperature  
Mean Temperature 70 °F -  
Max Temperature 77 °F 77 °F 90 °F (1988)
Min Temperature 64 °F 54 °F 42 °F (1967)
Cooling Degree Days 4    
Growing Degree Days 20 (Base 50)    
Moisture  
Dew Point 65 °F    
Average Humidity 88    
Maximum Humidity 97    
Minimum Humidity 73    
Precipitation  
Precipitation 0.56 in - - ()
Sea Level Pressure  
Sea Level Pressure 29.76 in    
Wind  
Wind Speed 10 mph (SSW)    
Max Wind Speed 17 mph    
Max Gust Speed 25 mph    
Visibility 8 miles    
Events Rain , Thunderstorm    
Averages and records for this station are not official NWS values.
T = Trace of Precipitation, MM = Missing Value Source: NWS Daily Summary

Daily Weather History Graph

Daily Weather History Graph

Search for Another Location

Airport or City:

Trip Planner

Search our weather history database for the weather conditions in past years. The results will help you decide how hot, cold, wet, or windy it might be!

Date:

Astronomy

Aug. 12, 2014 Rise Set
Actual Time 6:27 AM EDT 8:26 PM EDT
Civil Twilight 5:57 AM EDT 8:57 PM EDT
Nautical Twilight 5:20 AM EDT 9:33 PM EDT
Astronomical Twilight 4:40 AM EDT 10:13 PM EDT
Moon 9:30 PM EDT (8/12) 8:46 AM EDT (8/12)
Length of Visible Light 14h 59m
Length of Day
13h 58m
Waning Gibbous, 95% of the Moon is Illuminated
Aug 12
Waning Gibbous
Aug 17
Last Quarter
Aug 25
New
Sep 2
First Quarter
Sep 8
Full

Hourly Weather History & Observations

Time (EDT) Temp. Dew Point Humidity Pressure Visibility Wind Dir Wind Speed Gust Speed Precip Events Conditions
12:42 AM 64.9 °F 62.1 °F 90% 29.81 in 7.0 mi South 10.4 mph 21.9 mph 0.02 in Rain Light Rain
12:53 AM 64.0 °F 62.1 °F 93% 29.79 in 5.0 mi South 13.8 mph - 0.05 in Rain Rain
1:12 AM 64.0 °F 62.1 °F 93% 29.79 in 4.0 mi SSE 15.0 mph 24.2 mph 0.09 in Rain , Thunderstorm Thunderstorms and Rain
1:20 AM 64.9 °F 62.1 °F 90% 29.79 in 5.0 mi South 17.3 mph 25.3 mph 0.12 in Rain , Thunderstorm Thunderstorms and Rain
1:30 AM 64.0 °F 62.1 °F 93% 29.79 in 5.0 mi South 16.1 mph 23.0 mph 0.15 in Rain Light Rain
1:39 AM 64.9 °F 62.1 °F 90% 29.78 in 7.0 mi SSE 15.0 mph - 0.16 in Rain Light Rain
1:48 AM 64.4 °F 62.6 °F 94% 29.78 in 10.0 mi South 13.8 mph - 0.17 in Rain Light Rain
1:53 AM 64.9 °F 63.0 °F 93% 29.77 in 10.0 mi South 13.8 mph 20.7 mph 0.17 in Rain Light Rain
2:53 AM 64.9 °F 63.0 °F 93% 29.75 in 10.0 mi South 8.1 mph - 0.00 in   Overcast
3:32 AM 64.9 °F 63.0 °F 93% 29.76 in 10.0 mi SSE 13.8 mph - N/A   Overcast
3:53 AM 64.9 °F 63.0 °F 93% 29.75 in 10.0 mi South 11.5 mph - N/A   Overcast
5:53 AM 66.9 °F 64.9 °F 93% 29.75 in 10.0 mi South 5.8 mph - N/A   Mostly Cloudy
6:00 AM 66.0 °F 64.9 °F 96% 29.76 in 10.0 mi South 5.8 mph - N/A   Mostly Cloudy
6:53 AM 66.9 °F 66.0 °F 97% 29.75 in 9.0 mi South 6.9 mph - N/A   Overcast
7:13 AM 68.0 °F 66.0 °F 93% 29.77 in 10.0 mi South 6.9 mph - N/A   Overcast
7:53 AM 68.0 °F 66.0 °F 93% 29.76 in 10.0 mi South 8.1 mph - N/A   Mostly Cloudy
8:06 AM 69.1 °F 66.0 °F 90% 29.78 in 10.0 mi SSW 9.2 mph - N/A   Mostly Cloudy
8:16 AM 69.1 °F 66.0 °F 90% 29.78 in 10.0 mi SSW 9.2 mph - N/A   Mostly Cloudy
8:53 AM 70.0 °F 66.0 °F 87% 29.77 in 10.0 mi South 9.2 mph - N/A   Overcast
9:16 AM 71.1 °F 66.0 °F 84% 29.78 in 10.0 mi SSW 9.2 mph - N/A   Overcast
9:53 AM 72.0 °F 66.9 °F 84% 29.76 in 10.0 mi SSW 5.8 mph - N/A   Mostly Cloudy
10:08 AM 72.0 °F 66.0 °F 81% 29.77 in 10.0 mi SSW 13.8 mph - N/A   Mostly Cloudy
10:41 AM 75.0 °F 68.0 °F 79% 29.77 in 10.0 mi SSW 8.1 mph - N/A   Mostly Cloudy
10:53 AM 73.0 °F 66.0 °F 79% 29.75 in 10.0 mi SSW 11.5 mph - N/A   Mostly Cloudy
11:10 AM 75.0 °F 66.9 °F 76% 29.77 in 10.0 mi SSW 11.5 mph - N/A   Scattered Clouds
11:35 AM 73.0 °F 66.0 °F 79% 29.76 in 10.0 mi SW 11.5 mph - N/A   Mostly Cloudy
11:51 AM 75.2 °F 66.2 °F 73% 29.76 in 10.0 mi SSW 11.5 mph - N/A   Mostly Cloudy
11:53 AM 75.9 °F 66.9 °F 74% 29.74 in 10.0 mi South 13.8 mph - N/A   Mostly Cloudy
1:53 PM 73.9 °F 66.0 °F 76% 29.72 in 10.0 mi SSW 6.9 mph - 0.00 in Rain , Thunderstorm Light Thunderstorms and Rain
2:13 PM 73.0 °F 66.9 °F 81% 29.73 in 10.0 mi SSW 5.8 mph - 0.00 in   Mostly Cloudy
2:23 PM 73.0 °F 66.9 °F 81% 29.73 in 10.0 mi SSW 5.8 mph - 0.00 in Thunderstorm Mostly Cloudy
2:30 PM 73.0 °F 66.9 °F 81% 29.74 in 10.0 mi SW 5.8 mph - 0.00 in Thunderstorm Thunderstorm
2:50 PM 68.0 °F 64.4 °F 88% 29.76 in 8.0 mi West 9.2 mph - 0.01 in Rain , Thunderstorm Light Thunderstorms and Rain
2:53 PM 66.9 °F 64.9 °F 93% 29.75 in 7.0 mi WNW 10.4 mph - 0.01 in Rain , Thunderstorm Light Thunderstorms and Rain
3:07 PM 66.9 °F 64.9 °F 93% 29.75 in 5.0 mi WNW 5.8 mph - 0.02 in Rain Light Rain
3:14 PM 68.0 °F 66.0 °F 93% 29.74 in 3.0 mi NW 5.8 mph - 0.04 in Rain Light Rain
3:30 PM 69.1 °F 68.0 °F 96% 29.74 in 10.0 mi WSW 5.8 mph - 0.04 in   Overcast
3:40 PM 70.0 °F 66.9 °F 90% 29.75 in 10.0 mi WSW 6.9 mph - 0.04 in   Overcast
3:53 PM 71.1 °F 66.9 °F 87% 29.73 in 10.0 mi SW 5.8 mph - 0.04 in   Overcast
4:13 PM 71.1 °F 66.9 °F 87% 29.74 in 10.0 mi SSW 3.5 mph - N/A   Overcast
4:48 PM 73.4 °F 66.2 °F 78% 29.73 in 10.0 mi Calm Calm - N/A   Overcast
4:53 PM 73.9 °F 66.9 °F 79% 29.71 in 10.0 mi Calm Calm - N/A   Mostly Cloudy
5:04 PM 73.9 °F 66.9 °F 79% 29.73 in 10.0 mi West 3.5 mph - N/A   Scattered Clouds
5:53 PM 75.0 °F 66.0 °F 73% 29.72 in 10.0 mi Calm Calm - N/A   Mostly Cloudy
6:43 PM 71.1 °F 66.0 °F 84% 29.73 in 1.8 mi WNW 8.1 mph - 0.08 in Rain Heavy Rain
6:53 PM 69.1 °F 64.9 °F 87% 29.72 in 2.0 mi SSE 5.8 mph - 0.12 in Rain Light Rain
6:55 PM 68.0 °F 64.9 °F 90% 29.74 in 3.0 mi SSE 4.6 mph - 0.01 in Rain , Thunderstorm Light Rain
7:29 PM 68.0 °F 66.0 °F 93% 29.75 in 10.0 mi Calm Calm - 0.14 in Thunderstorm Overcast
7:53 PM 69.1 °F 66.0 °F 90% 29.74 in 9.0 mi Calm Calm - 0.14 in   Overcast
8:53 PM 66.0 °F 64.9 °F 96% 29.76 in 9.0 mi Calm Calm - N/A   Mostly Cloudy
9:39 PM 64.9 °F 63.0 °F 93% 29.78 in 9.0 mi Calm Calm - N/A   Mostly Cloudy
9:53 PM 64.0 °F 63.0 °F 96% 29.77 in 8.0 mi Calm Calm - N/A   Mostly Cloudy
10:53 PM 66.0 °F 64.0 °F 93% 29.76 in 9.0 mi WSW 4.6 mph - 0.00 in   Mostly Cloudy
11:34 PM 66.0 °F 64.0 °F 93% 29.80 in 8.0 mi NW 6.9 mph - N/A   Mostly Cloudy
11:53 PM 66.0 °F 64.0 °F 93% 29.78 in 3.0 mi WSW 4.6 mph - 0.03 in Rain , Thunderstorm Rain